Flag Weather past 2 weeks in Mayen, Rhineland-Palatinate, Germany

Now
48 °F

Cool.


Feels Like: 45 °F
Forecast: 32 / 40 °F
Wind: 7 mph from West

Location: Buechel

Current Time: Nov 24, 2014 at 1:27:20 AM

Latest Report: Nov 24, 2014 at 12:20 AM


Visibility: 6 mi

Pressure: 30.04 "Hg

Humidity: 87%

Dew point: 45 °F

Location of MayenLocation

Historic Weather in Mayen — Graph

°F

Mayen temperature yesterday

Maximum temperature yesterday: 52 °F (at 12:20 PM)
Minimum temperature yesterday: 41 °F (at 8:20 AM)
Average temperature yesterday: 47 °F

Past Weeks' High & Low Weather Summary

 TemperatureHumidityPressure
High52 °F (Nov 22, 2:20 PM)100% (Nov 9, 4:20 AM)30.27 "Hg (Nov 9, 4:20 AM)
Low36 °F (Nov 20, 6:20 AM)66% (Nov 19, 1:20 PM)29.53 "Hg (Nov 16, 6:20 AM)
Average44 °F93%29.86 "Hg
* Reported Nov 9 12:20 AM — Nov 24 12:20 AM, Mayen, Weather by CustomWeather, © 2014

Note: Actual official high and low records may vary slightly from our data, if they occured in-between our weather recording intervals... More about our weather records

Advertising

Mayen weather history for previous 24 hours

 ConditionsComfort  
Time TempWeatherWind HumidityBarometerVisibility
12:20 AM
Nov 24
48 °FCool.7 mph87%30.04 "Hg6 mi
11:20 PM
Nov 23
48 °FCool.6 mph87%30.04 "Hg6 mi
10:20 PM48 °FCool.7 mph82%30.04 "HgN/A
9:20 PM50 °FCool.6 mph82%30.04 "Hg6 mi
8:20 PM46 °FCool.6 mph87%30.04 "HgN/A
7:20 PM46 °FCool.7 mph82%30.04 "HgN/A
6:20 PM46 °FCool.9 mph82%30.04 "HgN/A
5:20 PM48 °FCool.8 mph76%30.04 "HgN/A
4:20 PM48 °FCool.8 mph82%30.04 "HgN/A
3:20 PM52 °FCool.7 mph77%30.07 "HgN/A
2:20 PM52 °FCool.7 mph77%30.07 "HgN/A
1:20 PM52 °FCool.6 mph77%30.07 "HgN/A
12:20 PM52 °FCool.6 mph82%30.09 "HgN/A
11:20 AM45 °FQuite cool.9 mph93%30.12 "HgN/A
10:20 AM45 °FQuite cool.7 mph93%30.12 "Hg5 mi
9:20 AM45 °FQuite cool.8 mph87%30.12 "Hg5 mi
8:20 AM41 °FQuite cool.5 mph93%30.12 "Hg0 mi
7:20 AM45 °FQuite cool.7 mph93%30.09 "Hg4 mi
6:20 AM43 °FQuite cool.7 mph93%30.09 "Hg3 mi
5:20 AM43 °FQuite cool.7 mph93%30.09 "Hg3 mi
4:20 AM45 °FQuite cool.5 mph93%30.12 "Hg4 mi
3:20 AM43 °FQuite cool.5 mph100%30.12 "Hg4 mi
2:20 AM46 °FCool.7 mph87%30.12 "Hg5 mi
1:20 AM45 °FQuite cool.7 mph87%30.12 "Hg4 mi
Weather by CustomWeather, © 2014

See weather overviewHow to use our weather pages